FW7645 Weather Reports


time (UTC)temp
C
wind
direction
speed
KPH
gust
KPH
rain 1hr
cm
rain 24hr
cm
rain mn
cm
humidity
%
barometer
mb
20260504044543 7 0 0.0 1.6 0.00 0.00 0.00 57 1014.0
20260504043039 7 0 0.0 1.6 0.00 0.00 0.00 55 1013.9
20260504041537 7 0 0.0 1.6 0.00 0.00 0.00 55 1013.9
20260504040054 7 131 0.0 1.6 0.00 0.00 0.00 56 1013.9
20260504034541 7 0 0.0 1.6 0.00 0.00 0.00 56 1013.7
20260504033038 7 0 0.0 1.6 0.00 0.00 0.00 56 1013.9
20260504031537 7 0 0.0 1.6 0.00 0.00 0.00 56 1013.8
20260504030042 7 132 0.0 1.6 0.00 0.00 0.00 58 1013.8
20260504024538 7 0 0.0 0.0 0.00 0.00 0.00 60 1013.9
20260504023040 7 0 0.0 0.0 0.00 0.00 0.00 57 1014.0
20260504021538 8 0 0.0 0.0 0.00 0.00 0.00 53 1013.9
20260504020037 9 0 0.0 1.6 0.00 0.00 0.00 51 1013.9
20260504014536 9 0 0.0 1.6 0.00 0.00 0.00 52 1013.8
20260504013047 9 0 0.0 1.6 0.00 0.00 0.00 51 1013.8
20260504011539 10 0 0.0 0.0 0.00 0.00 0.00 50 1013.6
20260504010035 10 0 0.0 1.6 0.00 0.00 0.00 47 1013.6
20260504004537 11 0 0.0 1.6 0.00 0.00 0.00 45 1013.6
20260504003037 11 0 0.0 1.6 0.00 0.00 0.00 43 1013.3
20260504001535 12 139 0.0 3.2 0.00 0.00 0.00 41 1013.3
20260504000040 12 0 0.0 4.8 0.00 0.00 0.00 39 1013.2
20260503234540 12 164 1.6 6.4 0.00 0.00 0.00 38 1013.2
20260503233038 13 34 1.6 11.3 0.00 0.00 0.00 37 1013.1
20260503231537 13 121 1.6 8.0 0.00 0.00 0.00 36 1013.1
20260503230037 14 346 0.0 11.3 0.00 0.00 0.00 37 1013.0
20260503224540 13 290 1.6 8.0 0.00 0.00 0.00 36 1013.0
20260503223041 13 316 3.2 17.7 0.00 0.00 0.00 37 1013.1
20260503221543 13 200 3.2 9.7 0.00 0.00 0.00 35 1013.0
20260503220040 13 291 4.8 12.9 0.00 0.00 0.00 35 1013.2
20260503214537 14 89 1.6 14.5 0.00 0.00 0.00 35 1013.1
20260503213043 13 162 4.8 14.5 0.00 0.00 0.00 35 1013.1
20260503211537 13 76 3.2 17.7 0.00 0.00 0.00 36 1013.0
20260503210039 13 320 6.4 19.3 0.00 0.00 0.00 35 1013.0
20260503204544 13 228 4.8 19.3 0.00 0.00 0.00 35 1013.1
20260503203035 13 204 4.8 17.7 0.00 0.00 0.00 35 1013.2
20260503201535 13 225 4.8 12.9 0.00 0.00 0.00 35 1013.4
20260503200036 13 288 4.8 17.7 0.00 0.00 0.00 35 1013.5
20260503194538 13 256 6.4 16.1 0.00 0.00 0.00 34 1013.6
20260503193039 13 295 4.8 14.5 0.00 0.00 0.00 36 1013.6
20260503191538 13 13 3.2 20.9 0.00 0.00 0.00 37 1013.8
20260503190046 13 209 4.8 14.5 0.00 0.00 0.00 35 1014.1
20260503184535 13 32 6.4 14.5 0.00 0.00 0.00 37 1014.2
20260503183040 12 0 4.8 12.9 0.00 0.00 0.00 38 1014.3
20260503181539 12 268 3.2 19.3 0.00 0.00 0.00 37 1014.5
20260503180049 12 278 3.2 16.1 0.00 0.00 0.00 39 1014.5
20260503174538 11 20 4.8 12.9 0.00 0.00 0.00 37 1014.6
20260503173051 11 288 4.8 12.9 0.00 0.00 0.00 38 1014.7
20260503171543 12 226 4.8 14.5 0.00 0.00 0.00 37 1014.5
20260503081545 2 257 1.6 6.4 0.00 0.00 0.00 67 1014.6
20260503071542 3 0 1.6 8.0 0.00 0.00 0.00 65 1014.4
20260503054541 3 0 0.0 4.8 0.00 0.05 0.00 64 1014.4
20260503053037 3 0 0.0 3.2 0.00 0.05 0.00 64 1014.5
20260503051539 3 143 0.0 1.6 0.00 0.05 0.00 64 1014.6
20260503050041 4 0 0.0 1.6 0.00 0.05 0.00 62 1014.7